Погода в Янтали

Россия / Иркутская область     56°50′49″N   105°15′05″E
темп.,
°C
ветер,
м/с
пор.,
м/с
влажн.,
%
обл.,
%
осадки,
мм/ч
давл.,
гПа
погр.,
м
5 марта, пт
пт523:00−27ююв239355 0.0 104050
02:00−27ююв359271 0.0 1039100
05:00−26ююв3690100 0.0 1037142
08:00−27юв349094 0.0 103696
11:00−19ююв368283 0.0 1033240
14:00−12ююв378267 0.0 1028348
17:00−10ююв378585 0.0 1024392
20:00−12ю269193 0.0 1024151
6 марта, сб
сб623:00−13ююв2591100 0.0 102298
02:00−16ю339192 0.0 102273
05:00−14ю3990100 0.0 1021298
08:00−12ююз31195100 0.3 1020482
11:00−6зюз61190100 0.6 1019966
14:00−5зюз61186100 1.0 10181209
17:00−5зюз5108499 0.2 10171125
20:00−9ююз279590 0.2 1019148
7 марта, вс
вс723:00−8ююз389695 0.1 1018226
02:00−7ююз3109697 0.4 1017473
05:00−6юз51291100 0.3 1014640
08:00−6ююз31292100 0.3 1013514
11:00−3зюз61476100 0.0 10111610
14:00−3зюз71490100 0.1 10101261
17:00−3зюз61488100 0.8 10101579
20:00−4зюз41189100 1.9 1011870
8 марта, пн
пн823:00−5зюз71485100 1.8 10121111
02:00−8з6138785 1.9 10141231
05:00−11з6129197 0.1 1017917
08:00−12з6139198 0.3 1020872
11:00−11з61089100 0.2 1022922
14:00−9з6985100 0.4 10241118
17:00−9з4786100 0.1 1024948
20:00−14ююз239583 0.2 102786
9 марта, вт
вт923:00−17ююв34968 0.0 102684
02:00−16ююв379239 0.0 1022155
05:00−15юв3889100 0.0 1018194
08:00−11ю41581100 0.0 1016577
11:00−5юз61286100 0.0 1013628
14:00−1зюз71487100 0.2 10121652
17:00−3зюз8167393 0.4 10131740
20:00−7з6147994 0.4 10171225